Weather History for Fort Benning, GA

Change the Weather History Date:

Saturday, February 8, 2014

  Actual Average Record
Temperature  
Mean Temperature 50 °F -  
Max Temperature 64 °F 59 °F 77 °F (2001)
Min Temperature 37 °F 34 °F 24 °F (2006)
Degree Days  
Heating Degree Days 14    
Moisture  
Dew Point 40 °F    
Average Humidity 84    
Maximum Humidity 100    
Minimum Humidity 47    
Precipitation  
Precipitation 0.01 in - - ()
Sea Level Pressure  
Sea Level Pressure 30.19 in    
Wind  
Wind Speed 2 mph (WNW)    
Max Wind Speed 9 mph    
Max Gust Speed -    
Visibility 10 miles    
Events Rain    
Averages and records for this station are not official NWS values.
T = Trace of Precipitation, MM = Missing Value Source: NWS Daily Summary

Daily Weather History Graph

Daily Weather History Graph

Search for Another Location

Airport:

Trip Planner

Search our weather history database for the weather conditions in past years. The results will help you decide how hot, cold, wet, or windy it might be!

Date:

Astronomy

Feb. 08, 2014 Rise Set
Actual Time 7:28 AM EST 6:19 PM EST
Civil Twilight 7:03 AM EST 6:45 PM EST
Nautical Twilight 6:34 AM EST 7:14 PM EST
Astronomical Twilight 6:05 AM EST 7:42 PM EST
Moon 1:18 PM EST (2/8) 2:35 AM EST (2/8)
Length of Visible Light 11h 41m
Length of Day
10h 51m
Waxing Gibbous, 68% of the Moon is Illuminated
Feb 8
Waxing Gibbous
Feb 14
Full
Feb 22
Last Quarter
Mar 1
New
Mar 8
First Quarter

Hourly Weather History & Observations

Time (EST) Temp. Windchill Dew Point Humidity Pressure Visibility Wind Dir Wind Speed Gust Speed Precip Events Conditions
12:58 AM 37.6 °F - 35.2 °F 91% 30.25 in 10.0 mi Calm Calm - N/A   Mostly Cloudy
1:58 AM 38.5 °F - 36.5 °F 93% 30.22 in 10.0 mi WSW 1.2 mph - N/A   Mostly Cloudy
2:58 AM 39.2 °F 35.9 °F 37.6 °F 94% 30.22 in 10.0 mi West 4.6 mph - N/A   Mostly Cloudy
3:35 AM 41.0 °F - 37.4 °F 87% 30.20 in 10.0 mi WNW 2.3 mph - N/A Rain Light Rain
3:50 AM 41.0 °F 39.0 °F 37.4 °F 87% 30.20 in 10.0 mi NW 3.5 mph - N/A   Mostly Cloudy
3:58 AM 40.5 °F 37.3 °F 37.8 °F 90% 30.20 in 10.0 mi NW 4.6 mph - 0.00 in   Mostly Cloudy
4:53 AM 41.0 °F - 37.4 °F 87% 30.17 in 8.0 mi Calm Calm - N/A   Mostly Cloudy
4:58 AM 40.6 °F - 37.0 °F 87% 30.18 in 9.0 mi Calm Calm - N/A   Mostly Cloudy
5:03 AM 41.0 °F - 37.4 °F 87% 30.17 in 10.0 mi West 1.2 mph - N/A   Scattered Clouds
5:28 AM 41.0 °F 39.0 °F 37.4 °F 87% 30.17 in 10.0 mi NW 3.5 mph - N/A Rain Light Rain
5:50 AM 41.0 °F - 37.4 °F 87% 30.21 in 10.0 mi WSW 2.3 mph - N/A   Clear
5:58 AM 40.6 °F - 37.4 °F 88% 30.22 in 10.0 mi Calm Calm - 0.00 in   Partly Cloudy
6:07 AM 41.0 °F - 39.2 °F 93% 30.22 in 10.0 mi Calm Calm - N/A Rain Light Rain
6:57 AM 39.2 °F - 39.2 °F 100% 30.25 in 10.0 mi West 2.3 mph - N/A   Scattered Clouds
6:58 AM 39.2 °F - 39.2 °F 100% 30.27 in 10.0 mi West 2.3 mph - 0.01 in   Scattered Clouds
7:15 AM 39.2 °F - 39.2 °F 100% 30.24 in 10.0 mi NW 2.3 mph - N/A   Light Drizzle
7:38 AM 39.2 °F - 39.2 °F 100% 30.26 in 10.0 mi West 2.3 mph - N/A   Scattered Clouds
7:58 AM 40.1 °F - 39.9 °F 99% 30.25 in 10.0 mi ENE 2.3 mph - 0.00 in   Mostly Cloudy
8:04 AM 41.0 °F 39.0 °F 41.0 °F 100% 30.22 in 10.0 mi NNE 3.5 mph - N/A Rain Light Rain
8:15 AM 41.0 °F - 41.0 °F 100% 30.24 in 10.0 mi Calm Calm - N/A   Partly Cloudy
8:58 AM 40.8 °F - 40.6 °F 99% 30.24 in 10.0 mi Calm Calm - 0.00 in   Scattered Clouds
9:58 AM 47.1 °F - 39.4 °F 74% 30.25 in 10.0 mi Variable 2.3 mph - N/A   Clear
10:58 AM 51.8 °F - 41.0 °F 67% 30.25 in 10.0 mi Variable 1.2 mph - N/A   Clear
11:58 AM 55.2 °F - 42.6 °F 63% 30.22 in 10.0 mi Variable 2.3 mph - N/A   Clear
12:58 PM 58.8 °F - 42.4 °F 55% 30.19 in 10.0 mi North 4.6 mph - N/A   Clear
1:58 PM 60.6 °F - 42.6 °F 52% 30.14 in 10.0 mi Variable 3.5 mph - N/A   Clear
2:58 PM 63.0 °F - 43.3 °F 49% 30.13 in 10.0 mi West 9.2 mph - N/A   Clear
3:58 PM 64.4 °F - 43.9 °F 47% 30.11 in 10.0 mi West 6.9 mph - N/A   Clear
4:58 PM 64.0 °F - 44.2 °F 49% 30.11 in 10.0 mi Variable 3.5 mph - N/A   Clear
5:58 PM 59.7 °F - 43.3 °F 55% 30.12 in 10.0 mi West 3.5 mph - N/A   Clear
6:58 PM 49.3 °F - 41.9 °F 76% 30.13 in 10.0 mi Calm Calm - N/A   Clear
7:58 PM 46.6 °F - 41.7 °F 83% 30.14 in 10.0 mi SE 1.2 mph - N/A   Clear
8:58 PM 43.3 °F 41.7 °F 40.8 °F 91% 30.14 in 10.0 mi ESE 3.5 mph - N/A   Clear
9:58 PM 42.4 °F - 40.6 °F 93% 30.15 in 10.0 mi SSE 2.3 mph - N/A   Mostly Cloudy
10:58 PM 41.0 °F - 40.8 °F 99% 30.16 in 10.0 mi SE 2.3 mph - N/A   Overcast
11:58 PM 42.1 °F - 41.9 °F 99% 30.17 in 10.0 mi SE 1.2 mph - N/A   Overcast